Date,TemperatureHighF,TemperatureAvgF,TemperatureLowF,DewpointHighF,DewpointAvgF,DewpointLowF,HumidityHigh,HumidityAvg,HumidityLow,PressureMaxIn,PressureMinIn,WindSpeedMaxMPH,WindSpeedAvgMPH,GustSpeedMaxMPH,PrecipitationSumIn
2013-1-1,19.1,6.0,-7.2,14.8,-0.2,-12.8,83,75,59,30.24,30.00,17,4,17,0.00
2013-1-2,20.6,14.9,12.1,17.1,11.4,8.2,89,86,82,30.03,29.92,12,5,12,0.00
2013-1-3,20.5,13.4,10.2,16.7,7.4,1.8,85,77,65,30.22,30.03,18,7,18,0.00
2013-1-4,31.6,21.9,13.5,17.4,13.5,9.3,85,70,54,30.09,29.97,18,6,18,0.03
2013-1-5,26.3,16.3,6.7,14.6,9.9,2.6,86,76,58,30.07,29.82,15,4,15,0.00
2013-1-6,23.6,15.1,9.7,11.8,8.1,3.1,86,74,55,30.18,29.97,15,6,15,0.00
2013-1-7,37.5,29.4,17.5,24.7,21.2,12.7,83,71,59,30.01,29.86,28,10,28,0.03
2013-1-8,33.8,26.7,15.2,28.2,21.6,11.8,89,81,72,29.94,29.74,20,6,20,0.01
2013-1-9,35.5,30.1,21.4,26.0,21.4,17.0,84,70,55,30.33,29.88,24,8,24,0.00
2013-1-10,39.1,32.3,21.3,32.5,24.7,16.2,95,74,49,30.29,29.72,16,7,16,0.24
2013-1-11,39.8,35.7,33.5,38.8,34.6,32.2,96,96,95,29.71,29.35,15,6,15,0.01
2013-1-12,38.5,15.2,3.9,37.5,7.8,-4.0,96,72,59,30.03,29.36,25,11,25,0.00
2013-1-13,9.9,4.3,1.1,1.7,-2.9,-5.5,76,72,62,30.20,30.00,15,5,15,0.00
2013-1-14,14.6,8.0,3.9,2.9,0.6,-1.8,80,72,56,30.37,30.21,15,4,15,0.00
2013-1-15,30.7,20.6,6.0,17.0,11.4,1.2,82,68,53,30.25,29.82,25,9,25,0.00
2013-1-16,36.9,26.2,13.3,31.4,18.2,-0.3,90,72,42,30.18,29.63,25,10,25,0.01
2013-1-17,19.7,12.2,3.2,10.0,1.0,-6.5,75,61,45,30.36,30.18,15,4,15,0.00
2013-1-18,42.8,30.6,16.4,30.0,23.1,9.9,85,74,60,30.26,29.71,18,7,18,0.00
2013-1-19,40.2,24.2,2.2,29.8,16.4,-7.2,89,72,53,30.16,29.65,33,10,33,0.00
2013-1-20,8.8,2.6,-2.8,-0.3,-7.7,-13.4,76,62,47,30.36,30.16,21,8,21,0.00
2013-1-21,-2.8,-6.7,-11.5,-12.3,-16.9,-21.6,69,60,51,30.30,30.22,18,8,18,0.00
2013-1-22,6.0,-3.1,-11.2,-4.1,-13.1,-19.4,69,62,52,30.36,30.20,12,4,12,0.00
2013-1-23,15.9,7.3,-4.8,7.2,-3.7,-18.9,81,61,44,30.55,30.10,25,9,29,0.00
2013-1-24,12.8,2.4,-6.5,2.6,-10.9,-19.8,63,53,43,30.62,30.14,24,7,24,0.00
2013-1-25,18.9,12.6,3.5,11.9,2.8,-4.4,79,65,50,30.26,29.91,27,10,27,0.00
2013-1-26,23.9,12.8,-0.6,11.4,2.4,-6.2,79,64,46,30.30,30.08,20,6,20,0.00
2013-1-27,32.4,29.4,22.7,30.0,22.6,11.3,95,77,57,30.08,29.76,18,5,18,0.02
2013-1-28,33.7,31.4,30.1,32.7,30.3,28.8,96,95,95,29.86,29.61,12,3,12,0.14
2013-1-29,34.6,31.8,27.8,31.8,28.5,21.2,96,88,75,29.69,29.48,22,7,22,0.08
2013-1-30,27.8,17.5,8.1,21.2,9.6,-0.3,77,71,64,29.71,29.58,24,14,24,0.00
2013-1-31,8.1,0.7,-8.2,0.6,-7.9,-18.3,75,66,60,30.22,29.71,21,12,21,0.00
2013-2-1,6.3,-3.0,-12.8,1.7,-11.8,-20.1,81,66,47,30.27,30.00,14,4,14,0.00
2013-2-2,12.9,6.7,1.5,5.1,-0.4,-5.5,82,73,56,30.14,29.92,12,3,12,0.00
2013-2-3,13.8,10.1,3.9,7.2,3.2,-2.7,83,74,58,30.05,29.92,15,5,15,0.00
2013-2-4,16.2,10.4,3.7,8.5,2.0,-1.8,84,69,51,30.02,29.74,15,4,15,0.00
2013-2-5,29.3,22.1,8.8,24.1,16.2,4.2,91,78,59,30.04,29.62,20,7,20,0.03
2013-2-6,25.0,15.1,1.5,19.1,10.3,-3.2,85,81,74,30.07,29.90,10,3,12,0.00
2013-2-7,26.4,24.8,19.4,22.5,20.4,15.9,91,83,74,30.21,29.93,21,7,21,0.00
2013-2-8,26.7,23.2,18.8,19.8,15.5,10.0,83,72,54,30.35,30.19,18,6,18,0.00
2013-2-9,31.3,27.8,24.7,27.0,23.7,19.7,89,84,80,30.19,29.90,26,15,26,0.01
2013-2-10,33.2,30.5,27.6,32.2,28.4,23.4,96,92,85,29.90,29.23,16,6,16,0.02
2013-2-11,30.6,24.2,17.2,29.6,19.0,10.6,96,81,69,30.00,29.28,25,11,25,0.00
2013-2-12,36.2,24.4,14.9,25.1,17.2,9.6,83,74,60,30.00,29.77,19,6,19,0.05
2013-2-13,39.5,28.9,18.4,31.1,23.0,14.6,93,79,59,29.77,29.52,14,4,14,0.19
2013-2-14,32.8,26.4,14.8,31.0,18.6,0.2,94,74,35,30.14,29.53,21,8,21,0.07
2013-2-15,17.8,10.3,4.3,3.8,0.3,-2.1,76,64,44,30.25,30.14,16,7,16,0.00
2013-2-16,17.8,8.1,0.1,5.3,0.6,-4.9,81,72,56,30.22,30.08,9,2,9,0.00
2013-2-17,30.9,20.2,5.0,21.9,12.6,-0.6,79,72,64,30.08,29.61,27,11,27,0.00
2013-2-18,33.2,22.9,6.1,29.8,16.6,0.7,87,76,69,29.75,29.49,22,10,22,0.00
2013-2-19,6.7,3.5,-1.8,1.0,-6.3,-10.9,80,63,53,30.31,29.75,29,12,29,0.00
2013-2-20,19.7,5.4,-7.0,3.6,-4.9,-13.4,73,62,48,30.41,30.31,10,3,10,0.00
2013-2-21,21.1,13.7,3.9,10.7,4.0,-2.6,75,65,56,30.40,30.04,13,5,13,0.00
2013-2-22,26.9,22.3,19.1,21.9,18.4,11.0,89,85,68,30.04,29.82,18,5,18,0.07
2013-2-23,27.6,20.4,12.6,20.9,16.1,8.9,88,83,74,29.93,29.82,12,4,12,0.02
2013-2-24,32.8,19.5,5.4,22.3,13.2,1.4,87,77,60,30.07,29.92,7,2,7,0.03
2013-2-25,37.6,27.5,17.8,25.2,21.5,14.8,92,78,58,30.08,30.00,10,2,10,0.00
2013-2-26,36.2,28.3,16.2,25.5,22.0,13.3,90,77,63,30.02,29.83,20,6,20,0.00
2013-2-27,37.5,31.2,27.5,24.2,22.9,20.9,80,72,57,29.99,29.83,25,11,25,0.00
2013-2-28,29.4,27.8,23.6,21.1,18.6,14.4,75,68,63,30.18,29.99,22,9,22,0.00
2013-3-1,29.8,24.1,17.3,16.0,13.5,10.3,74,64,52,30.32,30.18,18,6,18,0.00
2013-3-2,28.2,19.1,8.6,11.1,7.4,3.5,85,62,41,30.32,30.15,10,3,10,0.00
2013-3-3,32.9,23.7,11.9,12.6,9.3,4.9,73,55,38,30.15,29.95,16,4,16,0.00
2013-3-4,26.0,23.6,21.3,21.0,17.2,12.2,90,77,56,30.00,29.91,16,7,16,0.00
2013-3-5,27.5,24.7,21.3,23.4,21.2,16.7,91,87,80,30.26,29.94,15,6,15,0.04
2013-3-6,29.0,22.1,14.0,18.4,15.3,9.9,86,75,61,30.38,30.25,14,5,14,0.05
2013-3-7,30.7,18.9,6.3,18.2,11.5,2.2,86,73,58,30.35,30.25,15,4,15,0.05
2013-3-8,37.0,27.3,16.2,28.7,21.2,11.9,86,78,66,30.29,30.06,17,6,17,0.02
2013-3-9,35.8,34.6,32.9,34.6,32.6,26.7,96,92,75,30.06,29.67,21,8,21,0.57
2013-3-10,34.7,32.8,28.5,33.7,28.6,25.0,96,84,76,29.91,29.74,26,13,27,0.01
2013-3-11,29.4,27.0,21.8,25.6,20.9,15.4,91,78,66,29.82,29.71,20,9,20,0.01
2013-3-12,28.1,23.9,19.1,19.9,14.4,8.7,79,67,48,30.14,29.80,21,9,21,0.00
2013-3-13,32.5,22.0,11.9,16.8,11.5,7.7,83,66,40,30.35,30.15,13,5,13,0.00
2013-3-14,39.3,29.6,22.5,26.9,22.6,16.5,89,75,59,30.23,29.99,12,5,12,0.03
2013-3-15,33.4,30.6,25.7,30.5,27.3,23.3,92,87,82,29.99,29.78,12,4,12,0.09
2013-3-16,27.0,21.4,13.6,23.0,12.9,5.2,91,71,48,30.19,29.85,17,8,17,0.01
2013-3-17,27.9,18.4,7.7,19.4,6.3,-2.2,73,59,49,30.23,29.86,21,8,21,0.00
2013-3-18,29.0,21.1,11.1,27.7,15.9,3.6,95,80,71,29.86,29.58,29,15,29,0.00
2013-3-19,22.9,12.9,6.0,4.9,0.6,-4.3,73,59,40,30.15,29.77,23,13,23,0.00
2013-3-20,21.4,12.1,4.5,3.2,-1.5,-5.4,64,54,41,30.18,30.08,21,10,21,0.00
2013-3-21,29.1,16.5,3.5,9.6,3.7,-2.9,75,58,38,30.09,30.00,14,2,14,0.00
2013-3-22,35.5,22.9,9.0,14.9,9.4,2.7,78,58,35,30.07,30.01,12,3,12,0.00
2013-3-23,39.5,28.1,16.1,18.7,15.3,10.7,81,60,38,30.13,30.04,12,3,12,0.00
2013-3-24,31.5,28.8,26.1,22.5,20.0,17.0,78,69,58,30.08,29.94,20,7,20,0.00
2013-3-25,37.5,30.1,22.2,18.6,16.5,13.9,71,57,40,30.18,30.00,20,8,20,0.00
2013-3-26,41.2,30.6,24.2,20.8,19.2,17.5,76,64,41,30.27,30.19,12,4,12,0.00
2013-3-27,42.3,31.7,19.9,23.6,17.8,14.2,85,59,33,30.32,30.27,13,3,13,0.00
2013-3-28,43.3,32.2,19.2,26.6,21.1,15.0,85,65,39,30.33,30.26,15,3,15,0.00
2013-3-29,46.8,36.5,26.9,34.4,28.2,21.8,82,72,54,30.26,30.05,15,5,15,0.00
2013-3-30,55.4,42.7,33.8,41.1,36.1,31.2,91,78,56,30.05,29.83,16,7,16,0.13
2013-3-31,38.5,33.0,23.6,31.2,22.6,9.7,94,68,34,30.06,29.78,26,11,26,0.00
2013-4-1,33.7,25.0,16.7,15.1,11.5,9.1,73,57,38,30.23,30.05,18,9,18,0.00
2013-4-2,36.5,27.1,18.3,15.5,12.5,8.3,81,56,32,30.33,30.22,17,6,17,0.00
2013-4-3,45.1,33.7,19.9,30.3,20.5,11.1,78,59,42,30.38,30.05,25,10,25,0.00
2013-4-4,50.7,42.8,33.5,33.0,26.6,20.7,76,54,33,30.14,29.99,26,11,26,0.00
2013-4-5,44.5,33.7,26.7,32.0,23.8,15.1,93,69,35,30.21,29.88,18,7,18,0.05
2013-4-6,56.9,42.8,34.4,45.3,34.9,28.1,91,74,58,29.88,29.47,25,10,25,0.07
2013-4-7,48.8,45.2,40.3,38.2,37.0,33.2,91,74,60,29.86,29.73,13,6,13,0.23
2013-4-8,47.4,42.2,38.5,41.5,38.9,36.6,97,89,77,30.00,29.65,17,5,17,0.16
2013-4-9,41.2,37.5,30.9,36.6,32.2,25.4,93,81,59,30.12,29.93,25,12,25,0.40
2013-4-10,36.0,32.1,28.2,30.6,27.2,23.8,94,82,69,30.17,29.87,20,9,20,0.17
2013-4-11,36.0,32.3,29.7,31.7,29.1,22.1,94,88,57,29.88,29.64,22,6,22,0.37
2013-4-12,34.1,30.3,26.7,29.1,27.4,24.9,94,89,77,29.81,29.64,12,5,13,0.17
2013-4-13,37.0,31.8,28.1,26.8,24.9,22.4,92,76,58,29.93,29.81,16,4,16,0.11
2013-4-14,35.9,31.6,28.5,34.3,27.6,21.7,95,85,68,29.93,29.45,12,3,22,0.02
2013-4-15,39.8,35.3,31.3,33.5,27.4,23.2,93,73,61,29.95,29.52,26,13,26,0.02
2013-4-16,47.4,37.6,32.1,27.8,26.0,23.3,80,64,43,30.30,29.95,17,5,17,0.00
2013-4-17,39.1,35.9,32.4,34.1,29.9,25.6,94,79,67,30.30,29.88,17,6,17,0.39
2013-4-18,34.7,31.9,30.3,32.8,30.4,28.7,96,94,90,29.89,29.47,24,8,24,0.14
2013-4-19,33.4,30.4,28.4,29.3,26.5,20.3,96,86,62,29.86,29.45,27,8,27,0.10
2013-4-20,40.6,32.0,19.7,21.5,15.4,7.9,81,53,27,30.28,29.86,10,3,12,0.10
2013-4-21,50.5,40.2,32.5,46.2,35.5,17.7,95,84,52,30.29,30.01,30,11,30,0.28
2013-4-22,41.1,35.9,31.5,37.2,32.2,29.6,96,87,66,30.19,30.07,18,6,18,0.11
2013-4-23,40.8,33.2,28.1,32.4,26.1,17.9,96,78,43,30.13,30.03,18,4,18,0.23
2013-4-24,48.3,36.6,26.0,33.5,26.9,20.8,90,70,42,30.05,29.89,25,8,25,0.02
2013-4-25,51.7,40.8,32.1,30.9,28.2,21.6,88,64,31,30.20,29.97,17,7,17,0.00
2013-4-26,72.7,57.4,42.8,44.1,37.5,29.8,76,50,27,30.12,29.97,24,9,24,0.00
2013-4-27,75.3,60.1,41.8,47.7,40.3,32.3,75,51,26,30.12,29.90,20,6,20,0.00
2013-4-28,79.2,63.0,50.8,55.2,46.8,40.6,80,58,28,29.90,29.64,26,13,26,0.09
2013-4-29,74.4,62.2,50.5,56.9,48.1,35.7,90,63,38,29.80,29.55,16,6,16,0.07
2013-4-30,71.5,64.1,57.6,57.5,45.0,25.0,85,54,22,29.93,29.42,25,8,25,0.00
2013-5-1,57.5,39.7,32.8,41.2,34.3,30.8,94,83,44,30.45,29.95,20,7,20,0.55
2013-5-2,44.8,37.6,32.4,31.9,28.1,24.3,95,70,45,30.51,30.39,22,9,22,0.14
2013-5-3,38.3,33.5,30.6,32.2,27.8,24.0,95,80,58,30.39,30.15,23,10,23,0.07
2013-5-4,49.1,39.6,32.5,41.2,35.6,29.6,94,86,72,30.15,30.09,15,5,16,0.06
2013-5-5,66.0,50.0,38.2,46.9,40.3,34.9,89,71,46,30.15,30.06,12,4,12,0.00
2013-5-6,78.8,61.5,43.8,48.0,45.2,41.1,92,60,29,30.10,30.00,9,2,9,0.00
2013-5-7,80.1,66.6,51.3,51.6,46.2,37.6,85,52,22,30.06,29.95,3,0,10,0.00
2013-5-8,79.2,64.9,52.8,56.6,49.8,41.7,90,62,28,30.00,29.92,20,1,20,0.21
2013-5-9,58.3,52.9,44.1,55.5,47.6,27.2,92,83,52,30.08,29.94,21,1,21,0.13
2013-5-10,69.9,52.3,37.9,38.7,26.6,19.9,69,41,16,30.09,29.89,6,0,4,0.00
2013-5-11,56.2,46.9,41.2,42.6,25.0,14.2,66,44,25,30.16,29.86,24,4,24,0.00
2013-5-12,58.0,45.8,32.4,24.5,19.7,13.2,67,39,18,30.21,30.07,20,6,20,0.00
2013-5-13,67.4,54.3,53.5,45.9,16.2,14.5,46,22,21,30.08,29.62,16,3,17,0.00
2013-5-14,100.2,76.4,53.8,52.1,44.1,27.2,71,36,13,29.68,29.44,33,9,33,0.00
2013-5-15,78.5,67.0,55.0,50.2,45.0,41.0,67,47,27,29.91,29.66,23,7,23,0.00
2013-5-16,85.1,72.2,59.6,49.3,42.3,32.3,57,36,20,29.91,29.83,16,5,16,0.00
2013-5-17,67.3,57.0,53.9,54.9,50.5,32.7,95,81,28,29.99,29.88,15,6,15,0.26
2013-5-18,80.7,64.8,54.5,65.1,58.3,52.7,97,82,53,30.01,29.78,24,6,24,1.02
2013-5-19,81.1,68.2,61.6,66.3,62.5,59.8,96,83,55,29.80,29.55,35,7,35,1.31
2013-5-20,72.8,65.4,57.5,61.6,58.5,54.8,95,79,56,29.60,29.49,28,10,28,0.39
2013-5-21,67.1,59.0,51.7,59.0,54.4,49.7,97,86,59,29.69,29.51,20,5,20,0.01
2013-5-22,53.1,49.4,46.4,49.7,47.3,43.2,96,93,69,29.96,29.67,16,7,16,0.16
2013-5-23,65.6,53.4,44.3,43.2,34.1,27.5,82,51,26,30.33,29.97,17,6,17,0.00
2013-5-24,69.3,54.3,35.9,50.8,38.6,28.5,88,58,31,30.38,30.18,2,0,0,0.16
2013-5-25,60.1,55.1,51.3,49.6,46.9,41.3,90,74,58,30.26,30.22,9,0,9,0.02
2013-5-26,57.8,53.9,50.1,48.3,43.2,36.9,75,67,52,30.22,30.05,14,5,14,0.00
2013-5-27,60.7,55.8,52.6,55.3,51.1,46.7,94,85,69,30.10,29.83,12,2,12,0.17
2013-5-28,55.1,53.7,52.0,53.3,52.5,50.6,96,96,94,29.86,29.71,7,0,7,0.11
2013-5-29,54.4,54.4,54.4,53.3,53.3,53.3,96,96,96,29.72,29.72,0,0,0,0.00
2013-5-30,54.4,54.4,54.4,53.3,53.3,53.3,96,96,96,29.72,29.72,0,0,0,0.00
2013-5-31,78.6,68.1,61.0,60.6,56.3,47.1,90,68,34,29.56,29.49,21,8,35,0.06
2013-6-1,74.7,60.3,51.3,61.3,52.2,42.2,93,75,51,29.92,29.55,20,6,20,0.30
2013-6-2,68.4,56.0,48.2,43.0,39.5,36.6,75,56,33,30.07,29.93,17,6,17,0.00
2013-6-3,74.6,60.4,44.3,46.7,42.4,35.2,88,55,30,30.06,29.93,12,2,12,0.00
2013-6-4,63.7,58.8,54.2,53.3,49.6,45.1,90,72,57,30.08,29.99,23,6,23,0.03
2013-6-5,64.7,56.2,53.9,57.6,53.6,48.7,96,91,76,30.06,29.93,12,2,12,0.23
2013-6-6,56.5,53.1,49.9,52.5,50.6,48.8,97,91,82,30.02,29.94,12,4,12,0.00
2013-6-7,68.8,59.0,52.3,52.5,50.8,48.7,94,76,52,30.05,29.92,7,1,7,0.00
2013-6-8,73.0,63.2,53.2,55.9,52.5,50.1,91,70,48,29.92,29.88,16,3,16,0.00
2013-6-9,72.3,60.5,55.9,62.1,57.1,54.2,96,89,69,29.90,29.76,12,2,12,0.67
2013-6-10,80.1,66.2,57.5,63.1,59.8,56.1,97,82,50,29.86,29.80,12,1,12,0.00
2013-6-11,80.5,67.5,54.2,69.2,62.0,52.8,97,83,60,29.89,29.80,13,1,13,0.02
2013-6-12,72.1,66.7,62.4,66.5,62.2,51.5,97,86,58,29.90,29.77,14,4,14,0.84
2013-6-13,79.9,68.7,57.3,55.5,52.0,48.4,83,57,40,30.10,29.90,15,4,15,0.00
2013-6-14,80.9,69.0,54.1,60.4,56.3,50.4,89,65,48,30.09,29.87,21,7,21,0.03
2013-6-15,78.3,68.8,62.1,67.7,63.2,59.4,95,83,57,29.93,29.83,21,4,21,1.08
2013-6-16,88.6,72.0,59.6,61.4,53.6,43.1,95,58,22,29.93,29.85,33,4,33,0.02
2013-6-17,84.0,72.6,60.5,58.2,54.5,49.1,81,55,32,30.00,29.86,14,4,14,0.00
2013-6-18,83.6,68.4,57.0,59.9,54.7,49.5,77,63,39,30.08,30.00,10,2,10,0.00
2013-6-19,88.8,72.5,56.6,61.9,56.1,50.5,90,60,31,30.07,29.94,16,4,16,0.00
2013-6-20,90.3,80.0,69.6,65.4,61.2,58.0,72,54,34,30.01,29.88,23,10,23,0.00
2013-6-21,86.5,72.9,63.1,69.2,64.2,59.9,94,76,53,30.04,29.76,31,5,31,0.88
2013-6-22,88.0,72.9,64.5,70.9,66.0,60.2,96,80,53,30.01,29.83,14,2,14,0.55
2013-6-23,86.3,75.0,68.4,68.3,66.1,63.0,93,75,51,29.89,29.71,28,9,28,0.24
2013-6-24,83.4,71.8,62.4,70.0,65.1,60.7,96,81,60,29.91,29.80,20,4,20,0.01
2013-6-25,90.3,76.4,64.3,72.9,67.4,61.2,93,75,53,29.84,29.72,18,3,18,0.00
2013-6-26,90.3,78.8,70.1,74.5,69.3,62.9,96,75,48,29.82,29.66,15,4,15,0.00
2013-6-27,87.0,78.0,69.1,65.8,59.1,47.7,81,55,27,29.83,29.78,23,5,23,0.00
2013-6-28,77.6,70.3,64.5,64.3,59.2,55.7,91,69,53,29.81,29.75,33,8,33,0.28
2013-6-29,75.8,67.7,60.5,61.7,56.9,48.0,95,71,38,29.97,29.74,17,7,17,0.23
2013-6-30,81.6,68.5,54.8,54.6,50.2,41.4,84,56,28,30.11,29.97,13,3,13,0.00
2013-7-1,88.8,73.5,58.1,59.0,54.2,47.8,90,55,29,30.19,30.11,12,1,12,0.00
2013-7-2,84.0,71.2,56.6,55.8,52.4,46.8,82,54,32,30.16,30.05,13,2,13,0.00
2013-7-3,89.5,72.0,54.8,59.8,52.6,45.0,92,57,23,30.08,29.95,10,1,10,0.00
2013-7-4,88.8,76.0,62.0,61.5,55.7,49.5,79,53,27,29.98,29.87,20,7,20,0.00
2013-7-5,88.0,78.1,68.9,63.6,59.7,55.5,73,54,38,29.91,29.82,25,11,25,0.03
2013-7-6,90.7,80.9,72.0,65.2,61.9,58.8,67,54,38,29.89,29.81,21,10,21,0.00
2013-7-7,93.8,82.6,74.6,71.0,66.4,63.1,77,59,41,29.88,29.81,15,5,15,0.00
2013-7-8,92.1,77.9,68.3,69.4,67.0,64.5,93,71,44,29.99,29.87,9,2,9,0.00
2013-7-9,85.9,77.3,68.8,71.1,68.2,62.1,95,75,57,29.96,29.76,28,5,28,0.50
2013-7-10,80.9,71.5,62.1,63.6,55.4,48.6,78,59,37,30.05,29.91,17,6,17,0.00
2013-7-11,85.9,73.1,58.3,61.8,56.4,48.3,95,60,28,30.11,29.98,17,4,17,0.00
2013-7-12,88.0,77.1,65.6,61.8,58.6,56.3,76,54,38,30.02,29.91,28,12,28,0.00
2013-7-13,77.0,71.8,62.7,68.1,62.2,56.2,96,73,53,30.07,29.93,30,10,30,2.73
2013-7-14,86.7,74.3,67.8,68.0,64.0,60.1,86,72,46,30.19,30.07,15,4,15,0.00
2013-7-15,89.9,78.3,65.3,70.2,65.5,62.6,92,68,44,30.24,30.17,13,3,13,0.00
2013-7-16,93.2,82.7,72.3,72.4,69.8,66.4,91,67,44,30.22,30.18,18,5,18,0.00
2013-7-17,95.1,84.5,73.9,72.3,69.3,65.4,83,62,41,30.26,30.12,15,4,15,0.00
2013-7-18,93.4,84.9,76.8,71.4,69.5,67.4,77,61,44,30.12,29.78,25,10,25,0.00
2013-7-19,84.0,79.1,70.9,70.2,63.7,55.8,80,61,41,29.89,29.73,27,7,27,0.02
2013-7-20,84.7,72.4,64.0,66.2,60.6,56.0,85,67,47,29.95,29.87,12,1,12,0.00
2013-7-21,85.5,70.8,58.4,67.9,60.7,50.4,94,71,53,29.95,29.81,14,2,14,0.27
2013-7-22,88.4,74.5,65.0,71.4,63.7,54.9,92,71,45,29.83,29.67,17,7,17,0.00
2013-7-23,76.8,67.5,59.0,55.3,52.8,49.3,85,61,41,30.02,29.83,16,4,16,0.00
2013-7-24,79.8,66.4,55.1,59.5,55.3,51.2,88,69,42,30.08,29.97,14,3,14,0.01
2013-7-25,83.6,72.6,61.6,68.3,61.5,56.6,86,69,46,29.99,29.90,14,4,14,0.02
2013-7-26,69.4,63.5,56.5,63.4,55.1,45.5,95,75,54,30.07,29.90,22,8,22,0.17
2013-7-27,61.8,56.0,51.9,50.4,46.7,43.2,83,71,54,30.07,29.92,24,6,24,0.02
2013-7-28,73.5,60.3,51.1,53.0,48.7,44.4,86,67,47,30.06,29.94,14,4,14,0.00
2013-7-29,79.2,65.1,50.2,57.0,53.0,48.5,96,69,40,30.13,30.06,16,3,16,0.00
2013-7-30,72.1,67.0,62.9,64.4,60.3,55.9,91,79,70,30.10,30.05,9,2,9,0.00
2013-7-31,81.1,68.8,61.2,66.6,60.3,51.0,97,77,46,30.08,29.99,15,2,15,0.03
2013-8-1,83.6,69.8,54.8,61.6,54.5,49.8,86,61,35,30.04,29.86,10,2,10,0.00
2013-8-2,76.5,68.0,57.5,59.8,53.7,47.2,85,63,36,30.03,29.85,11,2,11,0.00
2013-8-3,78.3,64.9,53.3,56.1,51.7,45.6,92,66,34,30.16,30.03,12,2,12,0.00
2013-8-7,76.0,68.2,57.5,58.2,52.1,46.8,90,59,36,30.04,29.90,8,2,18,0.00
2013-8-8,76.8,64.2,52.6,60.1,55.4,50.6,95,75,49,30.07,29.99,10,2,10,0.00
2013-8-9,75.4,66.3,58.4,60.1,54.5,48.6,95,69,39,30.12,30.00,16,3,16,0.01
2013-8-10,79.2,67.6,58.4,56.9,53.4,48.0,86,63,36,30.19,30.09,16,2,16,0.00
2013-8-11,84.1,69.5,62.6,64.6,61.0,55.5,90,75,50,30.10,29.99,12,1,12,0.00
2013-8-12,78.3,70.1,61.6,63.7,56.7,50.4,94,66,40,30.06,29.99,15,4,15,0.00
2013-8-13,77.6,63.6,52.9,55.4,49.4,42.5,93,64,31,30.19,30.06,13,2,13,0.00
2013-8-14,78.1,66.6,50.7,55.1,51.3,47.7,93,61,36,30.20,30.10,12,2,12,0.00
2013-8-15,81.6,67.4,53.1,60.5,52.7,48.3,87,62,36,30.14,30.08,12,2,12,0.00
2013-8-16,80.7,69.5,57.5,59.4,54.8,48.8,89,62,36,30.20,30.13,16,2,16,0.00
2013-8-17,65.0,65.0,65.0,56.1,56.1,56.1,73,73,73,30.17,30.17,0,0,0,0.00
2013-8-18,65.0,65.0,65.0,56.1,56.1,56.1,73,73,73,30.17,30.17,0,0,0,0.00
2013-8-19,87.2,74.0,63.7,67.0,62.5,56.1,83,68,50,30.17,29.91,20,6,20,0.00
2013-8-20,88.8,78.2,69.3,72.8,67.7,62.5,82,71,55,29.93,29.86,20,8,20,0.00
2013-8-21,87.2,76.6,70.3,75.4,70.7,67.0,94,82,63,29.99,29.85,17,3,17,0.10
2013-8-22,87.6,75.0,64.0,71.7,56.3,49.4,95,56,29,30.12,29.98,14,2,14,0.00
2013-8-23,86.7,71.9,56.3,66.9,60.2,52.0,87,68,46,30.15,30.04,16,4,16,0.00
2013-8-24,88.2,77.1,67.6,71.6,67.0,62.6,85,72,56,30.09,29.95,29,12,29,0.00
2013-8-25,93.4,84.4,77.2,73.8,71.1,67.3,76,65,51,30.01,29.93,16,8,31,0.00
2013-8-26,93.6,85.1,77.7,75.0,72.6,70.6,80,67,50,29.98,29.85,26,7,26,0.00
2013-8-27,96.8,84.8,75.6,76.8,72.4,69.6,83,68,47,29.91,29.80,14,4,14,0.00
2013-8-28,94.0,80.2,69.6,74.3,71.2,67.7,96,76,48,30.01,29.91,10,1,10,0.00
2013-8-29,92.9,81.5,73.5,74.5,70.2,64.1,92,71,39,30.00,29.86,17,6,17,0.00
2013-8-30,83.6,76.7,70.3,71.1,66.1,61.8,87,71,53,29.92,29.81,17,5,17,0.00
2013-8-31,89.7,74.0,62.4,69.1,64.5,60.3,94,75,47,29.89,29.71,14,3,14,0.07
2013-9-1,72.5,68.7,62.0,67.3,59.3,52.5,86,73,60,29.97,29.73,16,6,16,0.00
2013-9-2,67.9,58.5,52.5,52.7,50.8,49.0,91,76,57,30.09,29.96,14,3,14,0.00
2013-9-3,78.5,62.0,45.8,58.9,52.7,44.4,96,74,45,30.10,30.00,16,2,16,0.01
2013-9-4,88.6,71.3,56.2,67.6,60.6,54.1,95,72,44,30.15,30.00,9,1,9,0.00
2013-9-5,86.7,72.0,59.2,67.1,60.3,53.0,86,68,48,30.22,30.11,7,1,7,0.00
2013-9-6,89.7,76.9,67.1,67.4,64.4,59.2,93,69,38,30.11,29.88,24,7,24,0.02
2013-9-7,92.5,79.8,70.4,71.0,66.0,62.3,88,65,38,30.00,29.86,15,4,15,0.00
2013-9-8,80.7,71.2,65.3,65.3,62.0,58.0,84,73,58,30.04,29.89,12,3,12,0.00
2013-9-9,92.7,78.4,68.6,72.6,68.1,63.5,95,73,45,29.89,29.63,20,7,20,0.07
2013-9-10,82.4,74.3,66.8,70.5,64.3,61.7,91,72,54,29.98,29.75,13,3,13,0.00
2013-9-11,84.0,72.4,62.0,62.3,56.9,47.6,92,62,31,30.05,29.98,17,3,17,0.00
2013-9-12,71.6,63.9,55.0,52.9,48.1,42.8,83,58,36,30.22,30.05,23,6,23,0.00
2013-9-13,72.7,57.4,43.2,48.0,44.2,40.9,95,65,34,30.28,30.09,12,2,12,0.00
2013-9-14,73.3,59.2,45.8,55.1,47.1,41.0,95,68,36,30.09,29.88,21,6,21,0.51
2013-9-15,65.0,57.9,49.2,56.7,52.6,44.2,96,83,68,30.30,29.87,17,5,17,0.35
2013-9-16,58.4,46.5,40.2,47.1,42.2,38.3,95,86,64,30.40,30.30,12,1,12,0.01
2013-9-17,58.0,52.8,51.9,47.2,47.0,45.9,84,81,64,30.40,30.18,9,8,9,0.01
2013-9-18,51.9,51.9,51.9,47.2,47.2,47.2,84,84,84,30.18,30.18,9,9,9,0.00
2013-9-19,77.6,69.2,51.9,69.2,64.1,47.2,95,84,69,30.18,29.61,16,4,16,0.16
2013-9-20,64.2,57.7,51.0,57.2,50.8,46.4,90,78,57,29.92,29.78,15,6,15,0.02
2013-9-21,65.2,53.0,45.8,48.2,45.6,43.6,93,78,51,29.98,29.90,10,2,10,0.00
2013-9-22,75.4,57.6,41.8,55.3,48.9,40.5,96,76,47,29.97,29.85,17,5,17,0.01
2013-9-23,75.1,61.2,50.8,53.0,50.1,46.7,87,69,43,29.96,29.87,27,8,27,0.00
2013-9-24,79.0,60.6,46.5,55.8,50.4,45.1,96,73,38,29.97,29.90,12,1,12,0.00
2013-9-25,76.8,59.9,47.4,54.9,50.3,46.0,96,74,42,29.98,29.87,15,2,15,0.00
2013-9-26,81.6,66.1,51.1,60.5,54.8,49.1,94,70,44,29.93,29.84,28,8,28,0.00
2013-9-27,84.1,72.5,64.5,62.9,59.6,57.5,80,65,43,29.93,29.80,26,12,26,0.00
2013-9-28,69.6,60.4,49.1,62.6,53.7,43.8,93,79,68,29.94,29.65,24,8,24,0.17
2013-9-29,76.0,61.0,48.6,47.1,43.4,39.2,81,56,27,29.96,29.80,21,8,21,0.00
2013-9-30,78.8,66.5,57.0,52.3,48.7,45.6,69,54,35,29.80,29.60,25,14,25,0.00
2013-10-1,75.8,66.1,52.9,52.4,43.5,30.9,70,47,21,29.98,29.60,23,7,23,0.00
2013-10-2,77.6,60.9,42.2,54.2,41.4,34.2,92,54,22,30.04,29.81,21,4,21,0.17
2013-10-3,57.6,56.9,56.0,56.5,55.7,53.7,96,96,92,29.89,29.80,9,2,9,0.16
2013-10-4,57.6,57.6,57.6,56.5,56.5,56.5,96,96,96,29.85,29.85,1,1,1,0.16
2013-10-5,61.8,54.3,40.5,58.9,50.0,38.4,99,86,60,29.89,29.72,7,1,19,0.09
2013-10-6,55.3,46.8,39.8,48.9,44.1,38.0,96,91,72,29.83,29.67,14,3,14,0.04
2013-10-7,67.3,52.1,42.2,46.4,42.4,38.3,95,73,35,29.98,29.82,12,2,12,0.01
2013-10-8,76.5,60.9,44.9,47.3,43.2,39.8,87,56,29,29.97,29.83,29,12,29,0.00
2013-10-9,75.4,62.9,52.6,52.0,48.4,45.8,78,60,38,30.05,29.93,18,9,18,0.00
2013-10-10,77.7,60.2,45.1,52.4,47.3,42.6,92,66,34,30.03,29.89,20,6,20,0.00
2013-10-11,74.2,64.1,52.9,59.7,53.0,48.8,89,69,47,29.89,29.64,35,11,35,0.19
2013-10-12,58.7,51.2,45.1,54.8,41.6,36.5,88,70,50,30.17,29.70,23,7,23,0.08
2013-10-13,61.8,46.9,37.8,39.5,35.1,30.3,86,67,32,30.42,30.17,8,1,8,0.00
2013-10-14,54.8,46.3,36.0,46.9,38.7,33.5,92,76,52,30.40,29.94,12,2,12,0.35
2013-10-15,52.9,49.0,46.0,51.8,47.1,44.2,97,93,87,29.95,29.66,16,6,17,0.66
2013-10-16,53.9,45.1,37.3,44.2,39.3,31.9,94,81,54,29.94,29.79,17,4,17,0.02
2013-10-17,60.7,47.0,37.2,44.5,38.0,31.9,93,72,41,29.87,29.74,16,4,16,0.08
2013-10-18,53.8,43.7,37.5,40.4,33.6,25.8,96,71,37,29.96,29.82,16,5,16,0.07
2013-10-19,47.0,39.3,32.2,39.6,33.8,27.8,89,81,64,29.83,29.66,21,4,21,0.03
2013-10-20,48.8,37.2,28.7,41.4,32.7,26.1,91,84,60,29.85,29.59,18,5,18,0.05
2013-10-21,38.3,34.1,28.1,32.4,22.5,18.6,80,63,48,29.94,29.85,17,6,17,0.00
2013-10-22,39.1,33.1,25.4,30.8,26.7,22.2,90,78,62,30.01,29.93,10,2,10,0.00
2013-10-23,38.5,34.0,30.6,30.8,24.4,18.2,87,69,50,30.08,29.98,15,4,15,0.01
2013-10-24,42.5,36.4,32.2,29.4,25.2,19.1,82,64,51,30.29,30.08,16,4,16,0.00
2013-10-25,56.7,42.9,27.2,40.3,31.9,23.3,88,67,46,30.30,29.77,26,9,26,0.00
2013-10-26,51.3,42.5,35.0,40.1,29.7,27.0,73,61,47,30.08,29.77,21,7,21,0.00
2013-10-27,58.4,43.0,28.8,33.8,29.1,24.2,84,60,36,30.10,29.79,20,6,20,0.00
2013-10-28,43.5,36.6,29.8,29.7,23.7,19.8,77,60,41,30.41,30.10,18,6,18,0.00
2013-10-29,41.9,36.9,29.0,36.1,27.9,20.4,89,70,60,30.38,30.07,12,3,12,0.04
2013-10-30,49.5,44.5,38.9,48.4,43.2,35.9,97,95,89,30.06,29.64,10,2,10,0.13
2013-10-31,49.8,42.3,39.3,49.0,40.3,36.1,97,93,83,29.64,29.38,16,4,16,0.01
2013-11-1,50.5,42.6,34.7,37.6,35.2,29.5,91,76,54,29.83,29.39,17,5,17,0.00
2013-11-2,49.1,39.5,32.4,35.2,29.9,27.1,85,70,43,30.08,29.83,15,3,15,0.00
2013-11-3,53.9,43.2,32.8,34.9,31.2,27.0,85,64,42,30.10,29.88,35,14,35,0.00
2013-11-4,47.3,45.9,43.8,39.1,35.8,32.5,75,68,58,29.88,29.83,29,16,29,0.00
2013-11-5,47.3,35.5,27.2,39.1,30.2,25.2,95,82,55,30.22,29.83,17,4,17,0.04
2013-11-6,39.1,33.1,29.1,31.1,26.9,22.8,95,79,57,30.15,29.98,13,6,13,0.10
2013-11-7,36.0,30.1,26.4,28.3,26.1,22.7,92,85,72,30.21,30.14,13,4,13,0.00
2013-11-8,45.7,35.2,21.6,39.6,27.4,19.1,92,75,50,30.18,29.59,24,9,24,0.01
2013-11-9,45.4,40.7,34.3,39.9,31.4,23.6,81,70,55,30.18,29.60,28,12,28,0.00
2013-11-10,42.9,37.7,31.3,30.3,27.8,24.8,78,67,55,30.31,30.07,20,5,20,0.00
2013-11-11,37.8,24.3,14.6,30.4,12.7,5.8,87,61,45,30.69,30.08,22,11,22,0.01
2013-11-12,28.7,18.9,10.2,12.5,8.2,5.3,82,64,39,30.75,30.43,13,4,13,0.00
2013-11-13,49.9,36.7,22.7,34.1,23.0,10.5,68,58,46,30.43,29.86,28,12,28,0.00
2013-11-14,51.7,40.5,35.0,37.0,32.0,27.2,83,72,55,29.85,29.74,14,5,14,0.00
2013-11-15,55.6,43.1,30.0,39.8,34.7,27.2,91,73,49,29.82,29.63,20,6,20,0.00
2013-11-16,50.7,43.9,38.8,49.9,41.0,32.8,97,90,72,29.63,29.21,19,7,19,0.14
2013-11-17,43.8,39.2,31.2,39.2,33.4,23.0,93,80,71,29.78,29.29,27,10,27,0.00
2013-11-18,34.9,29.1,22.5,23.2,19.5,17.3,81,67,53,30.23,29.80,25,9,25,0.00
2013-11-19,45.5,33.6,19.2,30.0,24.0,15.7,87,69,51,30.23,29.91,32,13,32,0.00
2013-11-20,42.6,39.7,36.3,34.2,29.5,24.3,92,68,52,30.01,29.87,29,14,29,0.00
2013-11-21,37.2,30.3,23.5,35.6,27.0,14.5,94,88,67,30.47,30.01,18,8,18,0.00
2013-11-22,32.5,22.6,12.3,14.5,10.3,1.6,82,61,32,30.57,30.42,28,8,28,0.00
2013-11-23,17.2,10.5,6.0,2.2,0.0,-3.8,75,63,40,30.80,30.57,20,6,20,0.00
2013-11-24,29.4,18.0,4.8,14.7,6.6,-1.6,77,61,47,30.67,29.98,33,14,33,0.00
2013-11-25,34.3,29.7,26.6,26.3,20.5,14.3,76,68,60,29.98,29.88,33,13,33,0.00
2013-11-26,34.3,34.3,34.3,26.2,26.2,26.2,72,72,72,29.93,29.93,5,5,5,0.00
2013-11-27,34.3,34.3,34.3,26.2,26.2,26.2,72,72,72,29.93,29.93,5,5,5,0.00
2013-11-28,34.3,21.5,12.1,26.2,11.1,6.4,80,64,53,30.48,29.93,15,4,15,0.00
2013-11-29,32.2,22.3,9.3,20.1,13.5,4.9,84,70,51,30.48,30.12,24,8,24,0.00
2013-11-30,38.2,31.3,23.0,26.0,23.1,18.6,85,72,60,30.12,30.00,16,3,16,0.00
2013-12-1,34.1,27.5,19.4,24.9,21.7,16.4,90,79,67,30.15,29.89,7,1,7,0.00
2013-12-2,37.0,32.0,25.1,32.6,28.5,21.2,94,87,75,29.89,29.55,20,5,20,0.11
2013-12-3,35.2,33.3,31.2,33.6,32.0,29.9,99,95,92,29.74,29.55,10,4,10,0.09
2013-12-4,31.5,27.6,11.9,30.2,25.7,6.7,96,93,79,29.73,29.42,20,5,20,0.00
2013-12-5,11.7,5.0,-1.2,6.6,-1.7,-7.7,80,73,66,30.29,29.67,22,7,22,0.00
2013-12-6,3.7,-2.5,-7.5,-5.1,-9.9,-15.0,76,70,63,30.59,30.29,13,4,13,0.00
2013-12-7,1.7,-5.3,-11.5,-9.5,-13.2,-18.0,74,68,56,30.68,30.53,10,2,10,0.00
2013-12-8,11.6,6.3,-2.2,6.0,1.1,-9.6,83,79,70,30.52,29.99,9,3,9,0.00
2013-12-9,10.5,0.0,-4.8,6.4,-7.0,-12.5,83,72,61,30.07,29.83,18,6,18,0.00
2013-12-10,14.1,7.6,1.8,10.2,0.5,-5.6,85,72,61,30.20,29.71,24,8,24,0.00
2013-12-11,6.9,-3.0,-8.2,-1.6,-12.5,-16.2,69,63,53,30.51,30.20,21,6,21,0.00
2013-12-12,19.7,12.8,0.5,10.2,4.8,-7.5,78,70,59,30.27,30.08,12,3,12,0.00
2013-12-13,15.4,13.1,10.5,9.6,6.3,4.0,83,74,67,30.23,30.07,20,6,20,0.00
2013-12-14,14.6,9.1,-0.4,7.8,3.3,-7.9,82,77,70,30.23,30.03,17,4,17,0.00
2013-12-15,5.0,1.1,-1.4,-6.9,-9.1,-11.0,71,62,48,30.10,30.04,13,4,13,0.00
2013-12-16,25.4,10.2,-0.6,19.5,3.7,-11.3,86,75,59,30.08,29.87,20,6,20,0.00
2013-12-17,30.3,23.1,8.4,24.9,15.1,4.0,83,71,57,30.07,29.84,24,9,24,0.00
2013-12-18,38.2,23.8,6.5,26.1,16.9,2.4,85,75,60,30.03,29.61,16,5,16,0.10
2013-12-19,28.8,18.8,15.7,22.8,11.8,7.8,79,74,66,30.02,29.75,20,8,20,0.00
2013-12-20,18.4,17.2,15.9,12.9,11.4,10.0,83,78,74,29.97,29.80,12,4,12,0.00
2013-12-21,22.2,18.8,15.7,15.4,12.9,10.6,83,77,70,29.94,29.81,13,4,13,0.00
2013-12-22,18.6,13.7,2.4,14.3,8.4,-3.7,83,79,73,30.18,29.89,14,6,14,0.00
2013-12-23,2.4,-2.0,-7.5,-3.6,-9.8,-15.3,76,69,61,30.45,30.18,16,6,16,0.00
2013-12-24,9.3,-1.1,-13.8,3.7,-9.1,-21.1,82,69,45,30.44,30.08,22,8,22,0.00
2013-12-25,27.5,16.4,8.3,23.6,11.3,3.9,89,80,64,30.10,29.99,20,5,20,0.00
2013-12-26,24.1,18.1,9.2,20.0,13.8,5.3,89,83,77,30.13,30.03,6,1,6,0.00
2013-12-27,39.8,28.8,14.0,30.2,23.7,10.8,92,82,65,30.12,29.86,24,6,24,0.20
2013-12-28,45.1,31.1,21.3,32.3,26.1,18.3,92,83,58,29.94,29.60,27,6,27,0.13
2013-12-29,21.4,-0.0,-12.5,18.1,-10.2,-21.5,88,62,44,30.25,29.92,28,10,28,0.00
2013-12-30,0.1,-6.0,-14.0,-5.4,-12.7,-21.9,78,72,64,30.25,30.11,10,2,10,0.00
2013-12-31,0.1,-5.4,-9.6,-8.3,-12.6,-16.8,78,70,63,30.35,30.14,7,2,7,0.00
2014-1-1,1.8,-3.1,-8.6,-8.5,-12.8,-17.8,67,62,58,30.42,30.33,9,4,9,0.00
2014-1-2,3.9,-3.3,-10.7,-10.1,-14.1,-19.5,69,59,42,30.44,30.33,9,3,9,0.00